This is the latest recevied weather packets stored in our database for station/object W5CRT. If no packets are shown the sender has not sent any weather packets the latest 10 day(s).
| Time | Temp. | Humidity | Pressure | Rain* | Wind** | Luminosity | Snow |
|---|---|---|---|---|---|---|---|
| 1777752575 | 24.44° C | 34% | 1018.6 hPa | 0 mm | - | 941 W/m² | - |
| 1777752271 | 23.89° C | 35% | 1018.7 hPa | 0 mm | - | 946 W/m² | - |
| 1777751969 | 23.89° C | 32% | 1018.7 hPa | 0 mm | - | 954 W/m² | - |
| 1777751666 | 24.44° C | 34% | 1018.7 hPa | 0 mm | - | 965 W/m² | - |
| 1777750755 | 23.89° C | 32% | 1019 hPa | 0 mm | - | 992 W/m² | - |
| 1777750148 | 23.89° C | 36% | 1019.1 hPa | 0 mm | - | 1003 W/m² | - |
| 1777749845 | 23.89° C | 34% | 1019.2 hPa | 0 mm | - | 1010 W/m² | - |
| 1777749542 | 23.33° C | 30% | 1019.1 hPa | 0 mm | - | 1016 W/m² | - |
| 1777749240 | 23.89° C | 32% | 1019.1 hPa | 0 mm | - | 1019 W/m² | - |
| 1777748937 | 23.33° C | 31% | 1019.2 hPa | 0 mm | - | 1023 W/m² | - |
| 1777748634 | 23.33° C | 33% | 1019.2 hPa | 0 mm | - | 1026 W/m² | - |
| 1777748330 | 23.33° C | 39% | 1019.3 hPa | 0 mm | - | 1027 W/m² | - |
| 1777747723 | 23.89° C | 33% | 1019.3 hPa | 0 mm | - | 1036 W/m² | - |
| 1777747115 | 23.33° C | 34% | 1019.4 hPa | 0 mm | - | 1038 W/m² | - |
| 1777744080 | 22.78° C | 34% | 1019.6 hPa | 0 mm | - | 1016 W/m² | - |
| 1777742869 | 22.22° C | 33% | 1020.2 hPa | 0 mm | - | 995 W/m² | - |
| 1777742261 | 22.22° C | 39% | 1020.2 hPa | 0 mm | - | 980 W/m² | - |
| 1777741655 | 22.22° C | 34% | 1020.5 hPa | 0 mm | - | 963 W/m² | - |
| 1777741047 | 22.22° C | 38% | 1020.5 hPa | 0 mm | - | 945 W/m² | - |
| 1777739834 | 21.67° C | 35% | 1020.3 hPa | 0 mm | - | 906 W/m² | - |
| 1777738622 | 20.56° C | 38% | 1020 hPa | 0 mm | - | 847 W/m² | - |
| 1777738016 | 21.11° C | 43% | 1020.3 hPa | 0 mm | - | 824 W/m² | - |
| 1777737413 | 20.56° C | 46% | 1020.4 hPa | 0 mm | - | 797 W/m² | - |
| 1777736177 | 19.44° C | 44% | 1020.2 hPa | 0 mm | - | 740 W/m² | - |
| 1777735874 | 19.44° C | 48% | 1019.9 hPa | 0 mm | - | 723 W/m² | - |
* Rain latest hour (hover to see other rain measurements)
** Current wind speed in m/s (hover to see current wind gust speed)